Regional Weather Roundup
Issued by NWS

Home | Current Version | Previous Version | Graphics & Text | Print | Product List | Glossary On
Versions: 1 2 3 4 5 6 7 8 9 10 11 12 13 14 15 16 17 18 19 20 21 22 23 24 25 26 27 28 29 30 31 32 33 34 35 36 37 38 39 40 41 42 43 44 45 46 47 48 49 50
344
ASUS44 KLIX 051810
RWRLA
LOUISIANA WEATHER ROUNDUP
NATIONAL WEATHER SERVICE NEW ORLEANS LA
1200 PM CST THU MAR 05 2015

NOTE: "FAIR" INDICATES FEW OR NO CLOUDS BELOW 12,000 FEET WITH NO
      SIGNIFICANT WEATHER AND/OR OBSTRUCTIONS TO VISIBILITY.
      SKY/WX - SKY CONDITION AND SIGNIFICANT WEATHER.
      TMP - AIR TEMPERATURE.    DP   - DEWPOINT TEMPERATURE.
      RH  - RELATIVE HUMIDITY.  PRES - PRESSURE.
      HX  - HEAT INDEX.         WCI  - WIND CHILL INDEX.

*  THESE STATIONS ARE NOT NWS OR FAA STATIONS AND ARE NOT UNDER
   NWS QUALITY CONTROL.

LAZ040-048-061>063-065-066-069-051900-
SOUTHEAST LOUISIANA

CITY           SKY/WX    TMP DP  RH WIND       PRES   REMARKS
N.O. AUDUBON     N/A     44  41  88 MISG        N/A
6HR MIN TEMP:  42; 6HR MAX TEMP:  54; 6HR PCP:  0.02;

N.O. INTL ARPT CLOUDY    43  36  76 N22G29    30.26S
6HR MIN TEMP:  42; 6HR MAX TEMP:  51; 6HR PCP:  0.01;

N.O. LAKEFRONT CLOUDY    45  39  79 N24G33    30.27R
6HR MIN TEMP:  45; 6HR MAX TEMP:  56; 6HR PCP:  0.06;

SLIDELL        CLOUDY    42  37  82 N18G26    30.25S
6HR MIN TEMP:  41; 6HR MAX TEMP:  54; 6HR PCP: TRACE;

BATON ROUGE    CLOUDY    35  30  82 N12G22    30.35R WCI  27
6HR MIN TEMP:  35; 6HR MAX TEMP:  37; 6HR PCP:  0.05;

BOOTHVILLE     CLOUDY    53  46  77 N24G32    30.17S
6HR MIN TEMP:  49; 6HR MAX TEMP:  71; 6HR PCP: TRACE;

BELLE CHASSE   CLOUDY    45  36  70 N15G29    30.23R
6HR MIN TEMP:  44; 6HR MAX TEMP:  72; 6HR PCP:  0.02;

BOGALUSA*        N/A     40  34  81 N16G25    30.31  WCI  31
6HR MIN TEMP:  39; 6HR MAX TEMP:  46; 6HR PCP:  0.04;

GALLIANO*      CLOUDY    49  41  74 NW24G35   30.21F
6HR MIN TEMP:  46; 6HR MAX TEMP:  68;

NEW ROADS*     FLURRIES  32  28  85 N16G23    30.38S WCI  21
6HR MIN TEMP:  32; 6HR MAX TEMP:  36;

GONZALES*      DRIZZLE   38  36  94 N20G25    30.30S WCI  28
6HR MIN TEMP:  38; 6HR MAX TEMP:  40; 6HR PCP:  0.01;

HAMMOND*       CLOUDY    39  32  75 N17G28    30.33R WCI  30
HOUMA*         CLOUDY    45  37  76 N22G29    30.24R
PORT FOURCHON* CLOUDY    50  43  76 N29G41    30.22R

$$

LAZ041-044-053-054-051900-
SOUTHWEST LOUISIANA

CITY           SKY/WX    TMP DP  RH WIND       PRES   REMARKS
LAKE CHARLES   LGT RAIN  35  31  85 N18G31    30.40R WCI  24
6HR MIN TEMP:  35; 6HR MAX TEMP:  39; 6HR PCP:  0.19;

LAFAYETTE      CLOUDY    34  30  85 N23G33    30.37R WCI  22
6HR MIN TEMP:  34; 6HR MAX TEMP:  38; 6HR PCP:  0.01;

PATTERSON      CLOUDY    41  34  75 N24       30.26F
6HR MIN TEMP:  39; 6HR MAX TEMP:  43;

SALT POINT       N/A     41  35  79 N16G24    30.25S
6HR MIN TEMP:  40; 6HR MAX TEMP:  42; 6HR PCP:  0.01;

NEW IBERIA     FLURRIES  36  30  79 N28G35    30.34R WCI  23
6HR MIN TEMP:  36; 6HR MAX TEMP:  39; 6HR PCP: TRACE;

CHENAULT AIRPK NOT AVBL

$$

LAZ027-028-051900-
CENTRAL LOUISIANA

CITY           SKY/WX    TMP DP  RH WIND       PRES   REMARKS
FORT POLK      CLOUDY    30  26  83 N16G26    30.45R WCI  19
6HR MIN TEMP:  29; 6HR MAX TEMP:  35; 6HR PCP:  0.13;

ALEXANDRIA INT CLOUDY    30  24  78 N18G31    30.46R WCI  18
6HR MIN TEMP:  29; 6HR MAX TEMP:  34; 6HR PCP:  0.13;

ALEXANDRIA     CLOUDY    32  23  69 N12G30    30.45S WCI  23
6HR MIN TEMP:  31; 6HR MAX TEMP:  35; 6HR PCP:  0.17;


$$

LAZ001-002-051900-
NORTHWEST LOUISIANA

CITY           SKY/WX    TMP DP  RH WIND       PRES   REMARKS
SHREVEPORT     FAIR      36  24  62 NE17G24   30.55F WCI  26
6HR MIN TEMP:  28; 6HR MAX TEMP:  36; 6HR PCP: TRACE;

BARKSDALE AFB  FAIR      35  22  58 NE15G24   30.55F WCI  25
6HR MIN TEMP:  27; 6HR MAX TEMP:  35; 6HR PCP: TRACE;

DTN SHREVEPORT FAIR      35  21  56 N14G22    30.56S WCI  26
6HR MIN TEMP:  27; 6HR MAX TEMP:  35; 6HR PCP: TRACE;


$$

LAZ014-016-051900-
NORTHEAST LOUISIANA

CITY           SKY/WX    TMP DP  RH WIND       PRES   REMARKS
MONROE         FAIR      31  22  69 N21G28    30.54R WCI  18
6HR MIN TEMP:  27; 6HR MAX TEMP:  31; 6HR PCP: TRACE;

TALLULAH       PTSUNNY   29  21  72 N24G33    30.51R WCI  15
6HR MIN TEMP:  28; 6HR MAX TEMP:  32; 6HR PCP:  0.18;


$$




USA.gov is the U.S. government's official web portal to all federal, state and local government web resources and services.